EW3861 Weather Reports


Display with metric or nautical units.
time (UTC)temp
F
wind
direction
speed
MPH
gust
MPH
rain 1hr
in
rain 24hr
in
rain mn
in
humidity
%
barometer
mb
20210307050058 22 268 0.0 2.0 0.00 0.00 0.00 61 1019.2
20210307044522 23 268 0.0 3.0 0.00 0.00 0.00 61 1019.1
20210307043031 23 267 0.0 3.0 0.00 0.00 0.00 61 1019.0
20210307041527 23 285 0.0 4.0 0.00 0.00 0.00 60 1019.0
20210307040059 23 284 0.0 5.0 0.00 0.00 0.00 59 1018.8
20210307034526 24 299 0.0 2.0 0.00 0.00 0.00 59 1018.7
20210307033202 24 295 0.0 7.0 0.00 0.00 0.00 59 1018.7
20210307030037 24 301 0.0 1.0 0.00 0.00 0.00 58 1018.8
20210307024846 24 293 1.0 4.0 0.00 0.00 0.00 57 1018.7
20210307023300 25 325 1.0 4.0 0.00 0.00 0.00 56 1018.7
20210307021611 25 310 1.0 4.0 0.00 0.00 0.00 55 1018.5
20210307020408 25 301 3.0 7.0 0.00 0.00 0.00 55 1018.4
20210307014648 26 31 2.0 5.0 0.00 0.00 0.00 54 1018.4
20210307013236 26 293 1.0 6.0 0.00 0.00 0.00 53 1018.4
20210307011806 26 322 0.0 6.0 0.00 0.00 0.00 52 1018.2
20210307010212 27 327 1.0 10.0 0.00 0.00 0.00 51 1017.9
20210307004626 27 305 2.0 4.0 0.00 0.00 0.00 50 1017.8
20210307003110 27 314 1.0 4.0 0.00 0.00 0.00 49 1017.5
20210307001645 28 299 1.0 7.0 0.00 0.00 0.00 49 1017.2
20210307000400 28 285 1.0 4.0 0.00 0.00 0.00 48 1017.0
20210306234610 28 309 3.0 8.0 0.00 0.00 0.00 47 1016.9
20210306233128 29 294 1.0 5.0 0.00 0.00 0.00 46 1016.5
20210306231632 29 290 2.0 8.0 0.00 0.00 0.00 45 1016.1
20210306230111 30 276 2.0 7.0 0.00 0.00 0.00 45 1015.7
20210306224613 30 288 1.0 5.0 0.00 0.00 0.00 44 1015.5
20210306223123 31 301 2.0 8.0 0.00 0.00 0.00 43 1015.3
20210306220152 32 303 2.0 7.0 0.00 0.00 0.00 42 1014.8
20210306214627 32 311 2.0 8.0 0.00 0.00 0.00 41 1014.7
20210306213110 33 212 4.0 11.0 0.00 0.00 0.00 40 1014.4
20210306211549 33 239 3.0 11.0 0.00 0.00 0.00 39 1014.2
20210306210055 34 335 1.0 10.0 0.00 0.00 0.00 38 1013.9
20210306204543 34 233 3.0 7.0 0.00 0.00 0.00 38 1013.7
20210306203051 35 338 3.0 8.0 0.00 0.00 0.00 38 1013.6
20210306201529 35 324 1.0 6.0 0.00 0.00 0.00 37 1013.6
20210306200140 35 302 0.0 7.0 0.00 0.00 0.00 39 1013.5
20210306194543 35 323 2.0 5.0 0.00 0.00 0.00 38 1013.5
20210306193044 35 217 1.0 8.0 0.00 0.00 0.00 39 1013.5
20210306191525 35 319 2.0 7.0 0.00 0.00 0.00 38 1013.4
20210306190028 34 67 1.0 9.0 0.00 0.00 0.00 39 1013.3
20210306184602 34 303 3.0 9.0 0.00 0.00 0.00 39 1013.2
20210306183154 33 243 3.0 9.0 0.00 0.00 0.00 39 1013.1
20210306181528 33 306 4.0 9.0 0.00 0.00 0.00 39 1013.1
20210306180021 33 306 2.0 6.0 0.00 0.00 0.00 39 1013.0
20210306174546 33 318 1.0 9.0 0.00 0.00 0.00 39 1013.0
20210306173136 32 269 2.0 8.0 0.00 0.00 0.00 42 1013.1
20210306171800 32 351 3.0 8.0 0.00 0.00 0.00 41 1013.3
20210306170344 31 209 4.0 11.0 0.00 0.00 0.00 42 1013.4
20210306164652 30 338 3.0 8.0 0.00 0.00 0.00 42 1013.7
20210306163148 30 111 1.0 8.0 0.00 0.00 0.00 43 1013.8
20210306161640 29 323 3.0 8.0 0.00 0.00 0.00 44 1013.9
20210306160133 29 321 5.0 10.0 0.00 0.00 0.00 44 1013.9
20210306154637 28 262 2.0 10.0 0.00 0.00 0.00 45 1014.0
20210306153059 28 244 4.0 8.0 0.00 0.00 0.00 46 1014.0
20210306151608 27 330 2.0 6.0 0.00 0.00 0.00 47 1014.0
20210306150124 27 316 1.0 6.0 0.00 0.00 0.00 48 1013.9
20210306144612 26 296 2.0 6.0 0.00 0.00 0.00 49 1013.9
20210306143158 25 299 0.0 8.0 0.00 0.00 0.00 50 1013.7
20210306141653 25 312 4.0 8.0 0.00 0.00 0.00 50 1013.9
20210306140055 24 312 3.0 9.0 0.00 0.00 0.00 51 1013.9
20210306134615 24 284 1.0 5.0 0.00 0.00 0.00 52 1013.6
20210306133222 23 322 3.0 6.0 0.00 0.00 0.00 53 1013.5
20210306131600 23 317 2.0 4.0 0.00 0.00 0.00 55 1013.5
20210306130229 22 318 1.0 5.0 0.00 0.00 0.00 57 1013.5
20210306124624 21 5 0.0 6.0 0.00 0.00 0.00 58 1013.3
20210306123133 20 350 0.0 6.0 0.00 0.00 0.00 59 1013.3
20210306121546 19 313 0.0 5.0 0.00 0.00 0.00 61 1013.2
20210306120106 19 338 0.0 2.0 0.00 0.00 0.00 62 1013.0
20210306114538 18 340 0.0 2.0 0.00 0.00 0.00 63 1012.8
20210306113438 18 340 0.0 1.0 0.00 0.00 0.00 61 1012.7
20210306111529 19 340 0.0 0.0 0.00 0.00 0.00 60 1012.7
20210306110439 19 340 0.0 0.0 0.00 0.00 0.00 60 1012.5
20210306104548 19 340 0.0 0.0 0.00 0.00 0.00 58 1012.4
20210306103054 20 340 0.0 1.0 0.00 0.00 0.00 57 1012.2
20210306101527 20 340 0.0 0.0 0.00 0.00 0.00 56 1012.2
20210306100151 21 340 0.0 2.0 0.00 0.00 0.00 55 1012.1
20210306094658 21 340 0.0 1.0 0.00 0.00 0.00 54 1011.9
20210306093121 22 340 0.0 2.0 0.00 0.00 0.00 53 1011.8
20210306091646 22 340 0.0 4.0 0.00 0.00 0.00 52 1011.7
20210306090329 22 286 0.0 2.0 0.00 0.00 0.00 51 1011.5
20210306084632 23 274 0.0 0.0 0.00 0.00 0.00 51 1011.3
20210306083127 23 332 0.0 2.0 0.00 0.00 0.00 50 1011.1
20210306081612 23 333 0.0 2.0 0.00 0.00 0.00 50 1011.1
20210306080226 24 329 0.0 3.0 0.00 0.00 0.00 51 1010.9
20210306074629 24 329 0.0 3.0 0.00 0.00 0.00 49 1010.8
20210306073234 24 313 0.0 2.0 0.00 0.00 0.00 50 1010.5
20210306071601 24 317 0.0 2.0 0.00 0.00 0.00 50 1010.5
20210306070044 24 313 1.0 3.0 0.00 0.00 0.00 50 1010.5
20210306064614 24 304 0.0 1.0 0.00 0.00 0.00 53 1010.5
20210306063219 24 306 0.0 0.0 0.00 0.00 0.00 50 1010.3
20210306061613 24 306 0.0 1.0 0.00 0.00 0.00 50 1010.2
20210306060107 24 306 0.0 3.0 0.00 0.00 0.00 49 1010.1
20210306054534 24 306 0.0 2.0 0.00 0.00 0.00 50 1009.9
20210306053047 24 302 0.0 4.0 0.00 0.00 0.00 50 1009.8
20210306051603 24 286 1.0 3.0 0.00 0.00 0.00 49 1009.7